Find Starlink 35918

NORAD ID: 66643 Int'l Des: 2025-271 Owner: SPXS Country: US Constellation: starlink operational
LEOCIRCULAR

实时位置

正在加载3D地球...

关于 Starlink 35918

正在加载描述...

即将过境

Passes for default location (London). Set your location on the main map for personalized predictions.

高度历史

Loading altitude history...

两行轨道根数

1 66643U 25271AC 26103.66957449 .00024139 00000-0 82337-3 0 9999
2 66643 53.1591 337.3526 0002093 78.5990 281.5246 15.30242947 22922
Epoch: Apr 13, 2026 • Age: 29 hours

当前状态

高度 475.3 km
速度 7.63 km/s
星下点 5.47°N, 10.95°W
发射日期 Nov 23, 2025
运行时间 0.3 years
类型 internet

技术详情

分类 Payload
质量 575.00 kg
干质量 530.00 kg
总质量 575.00 kg
长度 0.30 m
直径 4.10 m
跨度 29.00 m
形状 Box + pan
制造商 SPXS
平台类型 Starlink V2MO
阶段状态 In Orbit
所有者/国家 SPXS/US

Most Searched